Retour au catalogue

FENGYUN 1C DEB

ActifSSO
NORAD 29856·DEBRIS·🇨🇳 China

Lancé May 10, 1999 depuis Taiyuan Satellite Launch Center

Loading…

Prochains Passages (prochaines 24 heures)

TLE

FraisSource: Space-Track

Époque: Sep 14, 2026, 14:24 UTC

1 29856U 99025FA  26257.60024124  .00017086  00000-0  26307-2 0  9998
2 29856  98.6914   6.6838 0237233 177.8846 311.1826 14.56315819  3807

Suivez FENGYUN 1C DEB en temps réel avec AllMySat

Download on the App Store